Regional Weather Roundup
Issued by NWS

Home | Current Version | Previous Version | Text Only | Print | Product List | Glossary Off
Versions: 1 2 3 4 5 6 7 8 9 10 11 12 13 14 15 16 17 18 19 20 21 22 23 24 25 26 27 28 29 30 31 32 33 34 35 36 37 38 39 40 41 42 43 44 45 46 47 48 49 50

000
ASUS45 KCYS 080910
RWRWY

WYOMING REGIONAL WEATHER ROUNDUP
NATIONAL WEATHER SERVICE CHEYENNE WY
200 AM MST THU DEC 08 2016

NOTE:  "FAIR" INDICATES FEW OR NO CLOUDS BELOW 12,000 FEET
WITH NO SIGNIFICANT WEATHER AND/OR OBSTRUCTIONS TO VISIBILITY.

WYZ001-081000-
YELLOWSTONE NATIONAL PARK

CITY           SKY/WX    TMP DP  RH WIND       PRES   REMARKS
LK YELLOWSTONE   N/A    -12 -15  86 W3        30.16F
W YELLOWSTONE  NOT AVBL

$$
WYZ002>013-054>058-071-098>099-081000-
NORTHERN WYOMING

CITY           SKY/WX    TMP DP  RH WIND       PRES   REMARKS
JACKSON        FAIR     -18 -20  91 N3        30.27S
CODY           FAIR     -11 -16  78 S3        30.38R
GREYBULL       FAIR      -2  -7  79 CALM      30.48S
WORLAND        FAIR      -6  -9  86 CALM      30.45S
SHERIDAN       FAIR      -9 -16  71 CALM      30.48S
BUFFALO        FAIR      -2 -13  59 SW6       30.39S WCI -14
GILLETTE       FAIR      -8 -11  86 CALM      30.45S
HULETT         FAIR      -4  -9  77 S7        30.47R WCI -18
NEWCASTLE      FAIR      -9 -15  77 NW6       30.47R WCI -23

$$
WYZ014>020-022>026-101>103-081000-
CENTRAL WYOMING

CITY           SKY/WX    TMP DP  RH WIND       PRES   REMARKS
BIG PINEY      FAIR     -16 -20  82 CALM      30.24R
PINEDALE       FAIR     -18 -26  69 W13       30.24S WCI -41
DUBOIS         FAIR     -13 -18  77 NW6       30.17F WCI -27
LANDER         FAIR      -1  -6  79 CALM      30.32R
RIVERTON       FAIR       0  -5  79 CALM      30.33S
CASPER         FAIR     -26 -29  85 CALM      30.37S
DOUGLAS        FAIR     -16 -23  70 CALM      30.43R

$$
WYZ021-027>030-104>119-081000-
SOUTHERN WYOMING

CITY           SKY/WX    TMP DP  RH WIND       PRES   REMARKS
EVANSTON       FAIR       2 -11  54 SE3       30.18S
KEMMERER         N/A     -9 -15  77 N13       30.19S WCI -30
FORT BRIDGER   FAIR       1  -2  85 CALM      30.24R
ROCK SPRINGS   FAIR      -6  -9  86 NE3       30.23F
DIXON          FAIR      -1  -9  68 CALM      30.31S
RAWLINS        FAIR     -11 -16  78 CALM      30.25S
SARATOGA       FAIR      -8 -13  77 CALM      30.25S
LARAMIE        FAIR     -19 -23  81 SW5       30.21R WCI -32
CHEYENNE       FAIR     -15 -19  82 W6        30.31R WCI -29
TORRINGTON     FAIR      -8 -12  83 W7        30.48R WCI -23
PINE BLUFFS    FAIR     -17 -22  76 MISG      30.42R

$$



USA.gov is the U.S. government's official web portal to all federal, state and local government web resources and services.